SCP
0 0 0 0 0 0 0 0 0 0 0 0 0 0 0 0 0 0 0 0 0 0 0 0 0 0 0 0 0 0 0 0 0 0 0 0 0 0
0 0 0 0 0 0 0 0 0 0 0 0 0 0 0 0 0 0 0 0 0 0 0 0 0 0 0 0 0 0 0 0 0 0 0 0 0 0
0 0 0 0 0 0 0 0 0 0 0 0 0 0 0 0 0 0 0 0 0 0 0 0 0 0 0 0 0 0 0 0 0 0 0 0 0 0
0 0 0 0 0 0 0 0 0 0 0 0 0 0 0 0 0 0 0 0 0 0 0 0 0 0 0 0 0 0 0 0 0 0 0 0 0 0
0 0 0 0 0 0 0 0 0 0 0 0 0 0 0 0 0 0 0 0 0 0 0 0 0 0 0 0 0 0 0 0 0 0 0 0 0 0
0 0 0 0 0 0 0 0 0 0 0 0 0 0 0 0 0 0 0 0 0 0 0 0 0 0 0 0 0 0 0 0 0 0 0 0 0 0
0 0 0 0 0 0 0 0 0 0 0 0 0 0 0 0 0 0 0 0 0 0 0 0 0 0 0 0 0 0 0 0 0 0 0 0 0 0
0 0 0 0 0 0 0 0 0 0 0 0 0 0 0 0 0 0 0 0 0 0 0 0 0 0 0 0 0 0 0 0 0 0 0 0 0 0
0 0 0 0 0 0 0 0 0 0 0 0 0 0 0 0 0 0 0 0 0 0 0 0 0 0 0 0 0 0 0 0 0 0 0 0 0 0
0 0 0 0 0 0 0 0 0 0 0 0 0 0 0 0 0 0 0 0 0 0 0 0 0 0 0 0 0 0 0 0 0 0 0 0 0 0
0 0 0 0 0 0 0 0 0 0 0 0 0 0 0 0 0 0 0 0 0 0 0 0 0 0 0 0 0 0 0 0 0 0 0 0 0 0
0 0 0 0 0 0 0 0 0 0 0 0 0 0 0 0 0 0 0 0 0 0 0 0 0 0 0 0 0 0 0 0 0 0 0 0 0 0
0 0 0 0 0 0 0 0 0 0 0 0 0 0 0 0 0 0 0 0 0 0 0 0 0 0 0 0 0 0 0 0 0 0 0 0 0 0
0 0 0 0 0 0 0 0 0 0 0 0 0 0 0 0 0 0 0 0 0 0 0 0 0 0 0 0 0 0 0 0 0 0 0 0 0 0
0 0 0 0 0 0 0 0 0 0 0 0 0 0 0 0 0 0 0 0 0 0 0 0 0 0 0 0 0 0 0 0 0 0 0 0 0 0
0 0 0 0 0 0 0 0 0 0 0 0 0 0 0 0 0 0 0 0 0 0 0 0 0 0 0 0 0 0 0 0 0 0 0 0 0 0
0 0 0 0 0 0 0 0 0 0 0 0 0 0 0 0 0 0 0 0 0 0 0 0 0 0 0 0 0 0 0 0 0 0 0 0 0 0
0 0 0 0 0 0 0 0 0 0 0 0 0 0 0 0 0 0 0 0 0 0 0 0 0 0 0 0 0 0 0 0 0 0 0 0 0 0
0 0 0 0 0 0 0 0 0 0 0 0 0 0 0 0 0 0 0 0 0 0 0 0 0 0 0 0 0 0 0 0 0 0 0 0 0 0
0 0 0 0 0 0 0 0 0 0 0 0 0 0 0 0 0 0 0 0 0 0 0 0 0 0 0 0 0 0 0 0 0 0 0 0 0 0
0 0 0 0 0 0 0 0 0 0 0 0 0 0 0 0 0 0 0 0 0 0 0 0 0 0 0 0 0 0 0 0 0 0 0 0 0 0
0 0 0 0 0 0 0 0 0 0 0 0 0 0 0 0 0 0 0 0 0 0 0 0 0 0 0 0 0 0 0 0 0 0 0 0 0 0
0 0 0 0 0 0 0 0 0 0 0 0 0 0 0 0 0 0 0 0 0 0 0 0 0 0 0 0 0 0 0 0 0 0 0 0 0 0
Wind_Speed
1 1 1 1 1 1 2 2 3 5 6 4 3 4 4 5 7 6 7 11 13 13 14 13 13 13 13 13 13 12 12 11 11 11 11 11 13 13
1 1 2 2 2 2 2 2 3 4 6 4 4 4 5 5 8 7 7 12 12 13 13 12 12 13 13 12 12 11 10 11 11 11 10 10 12 12
1 1 2 2 2 2 2 2 3 3 6 5 4 4 5 6 6 6 7 7 7 12 13 12 12 12 12 11 11 10 10 10 10 10 10 10 10 10
1 1 2 1 2 2 2 2 3 3 5 8 5 4 5 6 6 7 6 6 6 10 12 12 12 11 11 10 8 8 9 9 9 9 9 9 9 9
2 2 2 2 2 2 2 2 2 3 4 5 6 5 5 4 5 6 6 6 6 7 9 11 11 11 10 9 8 8 7 7 7 7 7 7 8 9
1 2 2 3 3 3 3 3 3 3 4 5 5 5 5 4 4 5 6 5 5 4 7 8 9 10 10 9 8 7 7 7 7 7 6 6 6 7
1 2 3 3 3 3 3 3 3 3 4 4 5 5 5 4 4 4 6 6 5 3 5 5 5 5 5 6 6 6 7 7 7 7 6 6 6 7
2 2 2 2 3 4 5 5 5 5 5 4 5 5 6 5 5 5 5 5 5 2 3 5 3 4 3 3 5 6 6 6 6 6 6 6 6 6
1 2 2 2 3 3 5 6 6 7 7 5 6 6 6 6 6 5 5 6 6 3 3 5 3 4 4 4 7 6 6 5 5 6 6 6 5 5
1 2 2 3 3 3 3 4 5 5 5 5 6 6 6 5 5 6 6 6 5 2 1 4 3 4 4 4 6 6 5 5 5 5 5 4 4 3
2 2 2 3 5 6 3 4 5 4 5 6 7 7 7 7 5 3 3 3 4 3 1 2 3 4 4 3 3 4 4 4 4 4 3 2 2 2
2 2 3 4 6 6 3 3 5 5 4 5 5 6 5 5 5 3 3 3 3 3 2 2 2 2 3 3 2 2 3 4 4 2 1 1 1 1
2 2 3 5 6 6 4 3 5 5 3 4 4 4 4 3 3 3 3 3 3 3 2 1 2 2 2 3 3 3 3 2 1 1 1 1 2 2
2 2 3 5 5 5 4 5 6 5 2 3 3 3 3 4 4 4 4 4 4 4 4 2 2 2 2 2 3 3 3 2 1 1 1 1 2 2
2 3 4 5 4 4 5 6 4 2 2 2 3 4 4 4 4 4 3 3 3 3 2 2 2 2 2 2 2 2 2 2 1 1 1 1 1 1
2 3 4 3 3 3 4 3 2 2 2 3 3 4 3 3 3 3 3 3 2 3 2 2 2 1 1 1 1 1 1 1 1 1 1 2 2 1
1 1 1 1 1 2 2 2 2 2 2 3 3 3 3 3 3 3 2 2 2 3 3 2 2 1 0 0 1 1 1 1 1 0 1 2 1 1
0 0 1 2 2 2 2 3 2 3 3 3 3 3 3 3 3 3 2 2 2 2 2 2 2 2 2 1 1 1 1 1 1 1 1 2 1 0
1 1 1 2 2 2 2 3 3 3 3 3 3 3 3 3 3 3 3 3 2 2 2 1 1 0 0 1 2 2 1 0 1 1 1 1 1 0
1 1 2 2 2 2 3 3 3 3 3 3 3 3 3 3 3 3 3 3 3 2 2 1 1 1 2 2 1 2 2 0 1 1 0 1 2 2
2 2 2 2 2 2 3 3 3 3 3 3 3 3 3 3 3 3 3 4 2 2 2 2 2 2 0 1 1 1 2 2 1 1 1 1 1 2
2 3 2 2 2 3 3 3 3 3 3 3 3 3 3 3 3 3 3 3 2 2 2 2 1 0 0 1 1 0 1 2 3 5 5 2 2 2
3 3 3 3 3 2 2 3 3 3 3 3 3 3 3 3 3 3 3 3 2 1 1 1 0 0 0 1 1 1 1 1 2 3 4 6 7 7
Wind_Direction
194 210 221 224 234 248 243 234 247 274 274 260 269 262 265 265 279 272 272 282 285 286 287 289 291 292 293 295 290 285 280 280 278 271 263 261 259 253
196 195 224 226 234 241 243 252 248 254 271 272 266 275 276 283 289 278 272 288 283 283 282 284 285 286 288 290 288 286 281 280 277 263 262 266 259 250
239 231 248 238 240 250 245 246 253 254 270 281 269 280 280 281 288 278 274 266 271 281 281 281 282 283 284 287 285 284 281 276 271 260 258 262 264 250
215 222 241 237 241 252 250 258 264 264 268 283 285 282 277 273 276 279 284 279 270 282 281 282 283 283 283 282 283 283 284 280 273 265 260 257 261 256
209 216 235 232 243 253 261 265 272 283 277 281 287 281 280 279 284 286 286 277 281 284 283 284 284 284 282 280 279 281 283 284 279 268 263 265 257 254
219 231 238 235 237 244 256 260 269 276 277 281 285 291 288 290 286 294 301 290 286 285 287 288 288 284 280 278 277 279 282 280 277 269 266 269 264 254
248 256 258 259 256 262 268 266 265 267 275 281 287 297 295 302 294 291 292 295 288 268 285 279 276 269 271 269 274 280 279 275 268 261 267 271 266 254
246 275 283 272 281 288 288 287 276 270 273 273 278 288 287 289 285 291 294 301 294 288 288 282 270 273 276 268 284 285 284 278 268 262 262 267 261 246
268 280 292 296 295 284 290 294 288 284 275 268 272 276 279 284 284 281 288 289 280 285 297 277 272 277 281 278 283 282 285 278 268 263 260 255 256 241
287 276 279 289 293 301 304 301 288 285 285 275 271 276 278 279 267 263 269 283 286 275 278 280 291 289 295 283 274 280 282 278 270 268 257 249 251 232
303 308 301 296 306 315 310 302 297 294 301 298 296 299 306 306 301 289 295 300 299 288 306 297 295 305 300 290 291 291 290 294 284 268 247 227 217 202
312 305 302 305 312 315 298 296 301 302 312 314 314 318 312 309 314 278 268 274 290 285 289 309 290 315 311 299 301 300 299 294 292 279 236 191 176 163
297 303 302 314 315 318 316 302 305 314 311 300 301 307 308 306 305 296 275 258 263 268 269 288 285 298 284 301 309 304 307 309 289 282 215 164 152 150
275 289 296 315 321 322 322 325 324 323 318 311 308 309 310 309 304 298 290 276 259 259 261 245 242 251 280 297 296 307 314 328 348 4 25 101 134 122
274 287 302 316 321 321 328 331 327 324 324 322 315 310 304 298 297 297 298 296 294 289 274 260 246 240 242 258 280 302 315 320 347 17 44 71 75 115
281 287 300 313 325 330 331 327 323 322 321 314 315 311 311 311 307 305 305 313 314 310 303 301 292 249 248 267 251 277 311 304 329 2 42 53 59 78
290 324 327 326 325 325 326 327 325 322 314 316 314 317 318 318 312 314 309 309 306 303 313 328 342 331 244 248 271 297 327 341 335 14 86 87 74 99
300 312 305 303 300 303 307 312 311 311 310 310 311 312 312 311 314 314 308 297 296 300 301 311 334 353 6 356 353 292 319 321 339 14 93 116 114 35
225 269 286 292 301 304 299 295 296 300 299 297 299 303 304 304 307 310 311 303 295 294 299 310 318 322 237 300 325 355 304 334 42 53 61 82 134 152
260 257 274 283 288 293 294 294 295 299 299 299 300 302 300 299 302 305 305 305 303 300 302 304 274 255 227 231 265 317 344 105 145 146 58 53 64 64
256 265 270 276 281 283 287 290 292 293 297 297 297 296 293 292 293 295 294 296 289 285 285 284 279 294 328 88 75 349 349 17 63 127 134 107 89 82
250 259 265 268 272 276 282 287 290 291 297 296 299 298 290 286 289 288 287 285 274 268 275 288 297 31 75 146 170 170 13 14 37 47 49 78 138 161
249 258 264 267 269 273 276 279 280 281 282 286 291 293 294 287 282 282 284 280 279 272 265 267 263 108 134 159 156 138 97 64 55 57 41 47 69 86